Tracking 28794 objects as of 19-Apr-2024
HD Live streaming from Space Station
objects crossing your sky now

FENGYUN 1C DEB

Track FENGYUN 1C DEB now!
10-day predictions


NORAD ID: 38110
Int'l Code: 1999-025EPF
Perigee: 776.4 km
Apogee: 1,063.4 km
Inclination: 98.1 °
Period: 103.3 minutes
Semi major axis: 7290 km
RCS: 0.0124 m2 (small)
Launch date: May 10, 1999
Source: People's Republic of China (PRC)
Launch site: Taiyaun Space Center, China (TSC)

Note: This is SATELLITE DEBRIS
Your satellite tracking list
Your tracking list is empty




NASA's NSSDC Master Catalog

Two Line Element Set (TLE):
1 38110U 99025EPF 24106.81687678  .00002672  00000-0  17275-2 0  9993
2 38110  98.1165 113.5898 0196802 212.0817 274.8637 13.94533822548023
Source of the keplerian elements: AFSPC